,,Stat6,,Stat2,,Stat8,,Stat9,,Stat10,,Wind1,,Wind1,
time,status,PA1M_AVG,status,PR1M_SUM,status,RH1M_AVG,status,SR1M_AVG,status,TA1M_AVG,status,W1dAve1m,status,W1sAve1m,
2008-10-13, 00:00:00,VALID,917.581,VALID,0,VALID,100,VALID,-0.0509425,VALID,20.3039,VALID,99,VALID,0,
2008-10-13, 00:01:00,VALID,917.557,VALID,0,VALID,100,VALID,-0.0169808,VALID,20.2771,VALID,84,VALID,0,
2008-10-13, 00:02:00,VALID,917.536,VALID,0,VALID,100,VALID,-0.0339617,VALID,20.2709,VALID,82,VALID,0,
2008-10-13, 00:03:00,VALID,917.524,VALID,0,VALID,100,VALID,-0.0509425,VALID,20.2482,VALID,87,VALID,0,
2008-10-13, 00:04:00,VALID,917.505,VALID,0,VALID,100,VALID,0,VALID,20.2444,VALID,86,VALID,0,
2008-10-13, 00:05:00,VALID,917.506,VALID,0,VALID,100,VALID,-0.0169808,VALID,20.2282,VALID,80,VALID,0,
2008-10-13, 00:06:00,VALID,917.474,VALID,0,VALID,100,VALID,-0.0169808,VALID,20.222,VALID,80,VALID,0,
2008-10-13, 00:07:00,VALID,917.476,VALID,0,VALID,100,VALID,0,VALID,20.2222,VALID,88,VALID,0,
2008-10-13, 00:08:00,VALID,917.466,VALID,0,VALID,100,VALID,-0.0169808,VALID,20.2052,VALID,106,VALID,0,
2008-10-13, 00:09:00,VALID,917.441,VALID,0,VALID,100,VALID,-0.0169808,VALID,20.173,VALID,123,VALID,0,
2008-10-13, 00:10:00,VALID,917.418,VALID,0,VALID,100,VALID,-0.0169808,VALID,20.1501,VALID,136,VALID,0,
2008-10-13, 00:11:00,VALID,917.39,VALID,0,VALID,100,VALID,-0.0169808,VALID,20.1244,VALID,133,VALID,0,
2008-10-13, 00:12:00,VALID,917.363,VALID,0,VALID,100,VALID,-0.0169808,VALID,20.1406,VALID,136,VALID,0,
2008-10-13, 00:13:00,VALID,917.343,VALID,0,VALID,100,VALID,0,VALID,20.1239,VALID,134,VALID,0.209201,
2008-10-13, 00:14:00,VALID,917.322,VALID,0,VALID,100,VALID,0,VALID,20.1244,VALID,132,VALID,0.531445,
2008-10-13, 00:15:00,VALID,917.311,VALID,0,VALID,100,VALID,0,VALID,20.1244,VALID,121,VALID,0.0213914,
2008-10-13, 00:16:00,VALID,917.302,VALID,0,VALID,100,VALID,0,VALID,20.1376,VALID,122,VALID,0.000679348,
2008-10-13, 00:17:00,VALID,917.313,VALID,0,VALID,100,VALID,0.0169808,VALID,20.1176,VALID,111,VALID,0,
2008-10-13, 00:18:00,VALID,917.319,VALID,0,VALID,100,VALID,-0.0169808,VALID,20.1046,VALID,119,VALID,0,
2008-10-13, 00:19:00,VALID,917.33,VALID,0,VALID,100,VALID,0.0169808,VALID,20.1176,VALID,136,VALID,0,
2008-10-13, 00:20:00,VALID,917.331,VALID,0,VALID,100,VALID,0,VALID,20.1276,VALID,132,VALID,0,
2008-10-13, 00:21:00,VALID,917.32,VALID,0,VALID,100,VALID,-0.0339617,VALID,20.1341,VALID,147,VALID,0,
2008-10-13, 00:22:00,VALID,917.319,VALID,0,VALID,100,VALID,0,VALID,20.1536,VALID,150,VALID,0,
2008-10-13, 00:23:00,VALID,917.3,VALID,0,VALID,100,VALID,0,VALID,20.1558,VALID,152,VALID,0.316051,
2008-10-13, 00:24:00,VALID,917.285,VALID,0,VALID,100,VALID,0,VALID,20.1925,VALID,141,VALID,0.097202,
2008-10-13, 00:25:00,VALID,917.271,VALID,0,VALID,100,VALID,0.0169808,VALID,20.199,VALID,150,VALID,0,
2008-10-13, 00:26:00,VALID,917.26,VALID,0,VALID,100,VALID,0.0169808,VALID,20.2023,VALID,131,VALID,0,
2008-10-13, 00:27:00,VALID,917.25,VALID,0,VALID,100,VALID,0.0169808,VALID,20.1985,VALID,136,VALID,0.21875,
2008-10-13, 00:28:00,VALID,917.23,VALID,0,VALID,100,VALID,0,VALID,20.2055,VALID,137,VALID,0.203303,
2008-10-13, 00:29:00,VALID,917.22,VALID,0,VALID,100,VALID,0,VALID,20.215,VALID,145,VALID,0,
2008-10-13, 00:30:00,VALID,917.202,VALID,0,VALID,100,VALID,-0.0169808,VALID,20.228,VALID,170,VALID,0.00133384,
2008-10-13, 00:31:00,VALID,917.195,VALID,0,VALID,100,VALID,0,VALID,20.2282,VALID,159,VALID,0.00683594,
2008-10-13, 00:32:00,VALID,917.159,VALID,0,VALID,100,VALID,0,VALID,20.2215,VALID,143,VALID,0,
2008-10-13, 00:33:00,VALID,917.147,VALID,0,VALID,100,VALID,-0.0169808,VALID,20.2152,VALID,143,VALID,0,
2008-10-13, 00:34:00,VALID,917.134,VALID,0,VALID,100,VALID,0,VALID,20.199,VALID,142,VALID,0,
2008-10-13, 00:35:00,VALID,917.119,VALID,0,VALID,100,VALID,-0.0339617,VALID,20.1666,VALID,142,VALID,0,
2008-10-13, 00:36:00,VALID,917.107,VALID,0,VALID,100,VALID,-0.0169808,VALID,20.1541,VALID,142,VALID,0,
2008-10-13, 00:37:00,VALID,917.095,VALID,0,VALID,100,VALID,-0.0339617,VALID,20.1244,VALID,142,VALID,0,
2008-10-13, 00:38:00,VALID,917.073,VALID,0,VALID,100,VALID,0,VALID,20.1114,VALID,142,VALID,0,
2008-10-13, 00:39:00,VALID,917.036,VALID,0,VALID,100,VALID,-0.0169808,VALID,20.0914,VALID,142,VALID,0,
2008-10-13, 00:40:00,VALID,917.008,VALID,0,VALID,100,VALID,-0.0339617,VALID,20.1017,VALID,142,VALID,0,
2008-10-13, 00:41:00,VALID,916.971,VALID,0,VALID,100,VALID,-0.0169808,VALID,20.1049,VALID,140,VALID,0,
2008-10-13, 00:42:00,VALID,916.93,VALID,0,VALID,100,VALID,0,VALID,20.0922,VALID,138,VALID,0,
2008-10-13, 00:43:00,VALID,916.9,VALID,0,VALID,100,VALID,-0.0169808,VALID,20.0887,VALID,138,VALID,0,
2008-10-13, 00:44:00,VALID,916.886,VALID,0,VALID,100,VALID,-0.0339617,VALID,20.0987,VALID,138,VALID,0,
2008-10-13, 00:45:00,VALID,916.874,VALID,0,VALID,100,VALID,0,VALID,20.0692,VALID,138,VALID,0,
2008-10-13, 00:46:00,VALID,916.856,VALID,0,VALID,100,VALID,0,VALID,20.0465,VALID,137,VALID,0,
2008-10-13, 00:47:00,VALID,916.853,VALID,0,VALID,100,VALID,0,VALID,20.0103,VALID,137,VALID,0,
2008-10-13, 00:48:00,VALID,916.855,VALID,0,VALID,100,VALID,-0.0169808,VALID,20.0041,VALID,137,VALID,0,
2008-10-13, 00:49:00,VALID,916.836,VALID,0,VALID,100,VALID,0,VALID,19.9946,VALID,137,VALID,0,
2008-10-13, 00:50:00,VALID,916.81,VALID,0,VALID,100,VALID,0,VALID,19.9983,VALID,137,VALID,0,
2008-10-13, 00:51:00,VALID,916.791,VALID,0,VALID,100,VALID,0,VALID,19.9913,VALID,137,VALID,0,
2008-10-13, 00:52:00,VALID,916.766,VALID,0,VALID,100,VALID,0,VALID,19.9911,VALID,137,VALID,0,
2008-10-13, 00:53:00,VALID,916.753,VALID,0,VALID,100,VALID,0,VALID,19.9913,VALID,137,VALID,0,
2008-10-13, 00:54:00,VALID,916.747,VALID,0,VALID,100,VALID,-0.0169808,VALID,19.9749,VALID,137,VALID,0,
2008-10-13, 00:55:00,VALID,916.729,VALID,0,VALID,100,VALID,-0.0169808,VALID,19.9359,VALID,137,VALID,0,
2008-10-13, 00:56:00,VALID,916.715,VALID,0,VALID,100,VALID,-0.0169808,VALID,19.907,VALID,137,VALID,0,
2008-10-13, 00:57:00,VALID,916.699,VALID,0,VALID,100,VALID,-0.0339617,VALID,19.8778,VALID,137,VALID,0,
2008-10-13, 00:58:00,VALID,916.655,VALID,0,VALID,100,VALID,0,VALID,19.8615,VALID,137,VALID,0,
2008-10-13, 00:59:00,VALID,916.627,VALID,0,VALID,100,VALID,-0.0169808,VALID,19.8518,VALID,137,VALID,0,
2008-10-13, 01:00:00,VALID,916.592,VALID,0,VALID,100,VALID,-0.0169808,VALID,19.8453,VALID,137,VALID,0,
2008-10-13, 01:01:00,VALID,916.586,VALID,0,VALID,100,VALID,0,VALID,19.8548,VALID,137,VALID,0,
2008-10-13, 01:02:00,VALID,916.579,VALID,0,VALID,100,VALID,0,VALID,19.861,VALID,137,VALID,0,
2008-10-13, 01:03:00,VALID,916.591,VALID,0,VALID,100,VALID,0,VALID,19.8486,VALID,137,VALID,0,
2008-10-13, 01:04:00,VALID,916.604,VALID,0,VALID,100,VALID,-0.0509425,VALID,19.8301,VALID,137,VALID,0,
2008-10-13, 01:05:00,VALID,916.594,VALID,0,VALID,100,VALID,-0.101885,VALID,19.7917,VALID,137,VALID,0,
2008-10-13, 01:06:00,VALID,916.578,VALID,0,VALID,100,VALID,-0.0849042,VALID,19.736,VALID,137,VALID,0,
2008-10-13, 01:07:00,VALID,916.551,VALID,0,VALID,100,VALID,-0.101885,VALID,19.6616,VALID,137,VALID,0,
2008-10-13, 01:08:00,VALID,916.514,VALID,0,VALID,100,VALID,-0.0849042,VALID,19.5575,VALID,137,VALID,0,
2008-10-13, 01:09:00,VALID,916.472,VALID,0,VALID,100,VALID,-0.101885,VALID,19.4829,VALID,137,VALID,0,
2008-10-13, 01:10:00,VALID,916.436,VALID,0,VALID,100,VALID,-0.0509425,VALID,19.4445,VALID,137,VALID,0,
2008-10-13, 01:11:00,VALID,916.402,VALID,0,VALID,100,VALID,-0.118866,VALID,19.4542,VALID,137,VALID,0,
2008-10-13, 01:12:00,VALID,916.404,VALID,0,VALID,100,VALID,-0.118866,VALID,19.4347,VALID,137,VALID,0,
2008-10-13, 01:13:00,VALID,916.396,VALID,0,VALID,100,VALID,-0.101885,VALID,19.412,VALID,137,VALID,0,
2008-10-13, 01:14:00,VALID,916.404,VALID,0,VALID,100,VALID,-0.101885,VALID,19.4667,VALID,137,VALID,0,
2008-10-13, 01:15:00,VALID,916.391,VALID,0,VALID,100,VALID,-0.0849042,VALID,19.5418,VALID,106,VALID,0,
2008-10-13, 01:16:00,VALID,916.397,VALID,0,VALID,100,VALID,-0.0849042,VALID,19.574,VALID,101,VALID,0,
2008-10-13, 01:17:00,VALID,916.384,VALID,0,VALID,100,VALID,-0.101885,VALID,19.6002,VALID,102,VALID,0,
2008-10-13, 01:18:00,VALID,916.384,VALID,0,VALID,100,VALID,-0.101885,VALID,19.5967,VALID,110,VALID,0,
2008-10-13, 01:19:00,VALID,916.38,VALID,0,VALID,100,VALID,-0.0339617,VALID,19.592,VALID,130,VALID,0,
2008-10-13, 01:20:00,VALID,916.386,VALID,0,VALID,100,VALID,0.0339617,VALID,19.6145,VALID,138,VALID,0,
2008-10-13, 01:21:00,VALID,916.39,VALID,0,VALID,100,VALID,0,VALID,19.6277,VALID,142,VALID,0,
2008-10-13, 01:22:00,VALID,916.4,VALID,0,VALID,100,VALID,-0.0169808,VALID,19.5982,VALID,145,VALID,0,
2008-10-13, 01:23:00,VALID,916.411,VALID,0,VALID,100,VALID,-0.0169808,VALID,19.602,VALID,145,VALID,0,
2008-10-13, 01:24:00,VALID,916.384,VALID,0,VALID,100,VALID,-0.0509425,VALID,19.5887,VALID,145,VALID,0,
2008-10-13, 01:25:00,VALID,916.364,VALID,0,VALID,100,VALID,0,VALID,19.5793,VALID,145,VALID,0,
2008-10-13, 01:26:00,VALID,916.339,VALID,0,VALID,100,VALID,0,VALID,19.5336,VALID,149,VALID,0,
2008-10-13, 01:27:00,VALID,916.32,VALID,0,VALID,100,VALID,-0.0339617,VALID,19.5371,VALID,217,VALID,0,
2008-10-13, 01:28:01,VALID,916.287,VALID,0,VALID,100,VALID,0,VALID,19.5628,VALID,217,VALID,0,
2008-10-13, 01:29:00,VALID,916.266,VALID,0,VALID,100,VALID,-0.0339617,VALID,19.589,VALID,217,VALID,0,
2008-10-13, 01:30:01,VALID,916.242,VALID,0,VALID,100,VALID,0,VALID,19.6279,VALID,217,VALID,0,
2008-10-13, 01:31:01,VALID,916.216,VALID,0,VALID,100,VALID,0.0169808,VALID,19.6469,VALID,217,VALID,0,
2008-10-13, 01:32:00,VALID,916.193,VALID,0,VALID,100,VALID,0,VALID,19.6696,VALID,217,VALID,0,
2008-10-13, 01:33:00,VALID,916.185,VALID,0,VALID,100,VALID,-0.0169808,VALID,19.6569,VALID,217,VALID,0,
2008-10-13, 01:34:00,VALID,916.166,VALID,0,VALID,100,VALID,0,VALID,19.5955,VALID,217,VALID,0,
2008-10-13, 01:35:00,VALID,916.144,VALID,0,VALID,100,VALID,0,VALID,19.563,VALID,213,VALID,0,
2008-10-13, 01:36:00,VALID,916.128,VALID,0,VALID,100,VALID,0.0169808,VALID,19.5363,VALID,182,VALID,0,
2008-10-13, 01:37:01,VALID,916.117,VALID,0,VALID,100,VALID,-0.0339617,VALID,19.5338,VALID,182,VALID,0,
2008-10-13, 01:38:00,VALID,916.069,VALID,0,VALID,100,VALID,0,VALID,19.5046,VALID,181,VALID,0,
2008-10-13, 01:39:00,VALID,916.037,VALID,0,VALID,100,VALID,0,VALID,19.4817,VALID,181,VALID,0,
2008-10-13, 01:40:00,VALID,916.006,VALID,0,VALID,100,VALID,0,VALID,19.4979,VALID,181,VALID,0,
2008-10-13, 01:41:00,VALID,915.977,VALID,0,VALID,100,VALID,0,VALID,19.5014,VALID,182,VALID,0,
2008-10-13, 01:42:00,VALID,915.961,VALID,0,VALID,100,VALID,0,VALID,19.5011,VALID,183,VALID,0,
2008-10-13, 01:43:00,VALID,915.943,VALID,0,VALID,100,VALID,0,VALID,19.5209,VALID,185,VALID,0,
2008-10-13, 01:44:00,VALID,915.925,VALID,0,VALID,100,VALID,0,VALID,19.5436,VALID,192,VALID,0,
2008-10-13, 01:45:01,VALID,915.907,VALID,0,VALID,100,VALID,-0.0169808,VALID,19.5628,VALID,194,VALID,0,
2008-10-13, 01:46:01,VALID,915.904,VALID,0,VALID,100,VALID,-0.0169808,VALID,19.5793,VALID,194,VALID,0,
2008-10-13, 01:47:01,VALID,915.909,VALID,0,VALID,100,VALID,0,VALID,19.5987,VALID,194,VALID,0,
2008-10-13, 01:48:00,VALID,915.888,VALID,0,VALID,100,VALID,-0.0169808,VALID,19.602,VALID,194,VALID,0,
2008-10-13, 01:49:00,VALID,915.869,VALID,0,VALID,100,VALID,-0.0339617,VALID,19.5992,VALID,194,VALID,0,
2008-10-13, 01:50:00,VALID,915.847,VALID,0,VALID,100,VALID,-0.118866,VALID,19.6162,VALID,194,VALID,0,
2008-10-13, 01:51:00,VALID,915.826,VALID,0,VALID,100,VALID,-0.101885,VALID,19.606,VALID,194,VALID,0,
2008-10-13, 01:52:00,VALID,915.798,VALID,0,VALID,100,VALID,-0.135847,VALID,19.6097,VALID,194,VALID,0,
2008-10-13, 01:53:00,VALID,915.766,VALID,0,VALID,100,VALID,-0.101885,VALID,19.6292,VALID,194,VALID,0,
2008-10-13, 01:54:01,VALID,915.729,VALID,0,VALID,100,VALID,-0.101885,VALID,19.6456,VALID,200,VALID,0,
2008-10-13, 01:55:01,VALID,915.691,VALID,0,VALID,100,VALID,-0.0849042,VALID,19.6354,VALID,200,VALID,0,
2008-10-13, 01:56:00,VALID,915.652,VALID,0,VALID,100,VALID,-0.118866,VALID,19.6456,VALID,188,VALID,0,
2008-10-13, 01:57:00,VALID,915.618,VALID,0,VALID,100,VALID,-0.101885,VALID,19.6421,VALID,180,VALID,0,
2008-10-13, 01:58:00,VALID,915.589,VALID,0,VALID,100,VALID,-0.101885,VALID,19.6194,VALID,180,VALID,0,
2008-10-13, 01:59:00,VALID,915.573,VALID,0,VALID,100,VALID,-0.101885,VALID,19.6129,VALID,170,VALID,0,
2008-10-13, 02:00:00,VALID,915.559,VALID,0,VALID,100,VALID,-0.0849042,VALID,19.603,VALID,168,VALID,0,
2008-10-13, 02:01:00,VALID,915.541,VALID,0,VALID,100,VALID,-0.101885,VALID,19.5967,VALID,139,VALID,0,
2008-10-13, 02:02:00,VALID,915.529,VALID,0,VALID,100,VALID,-0.101885,VALID,19.554,VALID,118,VALID,0,
2008-10-13, 02:03:00,VALID,915.511,VALID,0,VALID,100,VALID,-0.101885,VALID,19.5318,VALID,97,VALID,0,
2008-10-13, 02:04:00,VALID,915.52,VALID,0,VALID,100,VALID,-0.0509425,VALID,19.5141,VALID,108,VALID,0,
2008-10-13, 02:05:01,VALID,915.514,VALID,0,VALID,100,VALID,0,VALID,19.5069,VALID,106,VALID,0,
2008-10-13, 02:06:00,VALID,915.505,VALID,0,VALID,100,VALID,0.0169808,VALID,19.4972,VALID,105,VALID,0,
2008-10-13, 02:07:01,VALID,915.518,VALID,0,VALID,100,VALID,0.0169808,VALID,19.4677,VALID,106,VALID,0,
2008-10-13, 02:08:00,VALID,915.531,VALID,0,VALID,100,VALID,0.0339617,VALID,19.4712,VALID,102,VALID,0,
2008-10-13, 02:09:00,VALID,915.534,VALID,0,VALID,100,VALID,-0.0169808,VALID,19.449,VALID,81,VALID,0,
2008-10-13, 02:10:00,VALID,915.55,VALID,0,VALID,100,VALID,0,VALID,19.4425,VALID,82,VALID,0,
2008-10-13, 02:11:01,VALID,915.568,VALID,0,VALID,100,VALID,-0.0169808,VALID,19.4333,VALID,67,VALID,0,
2008-10-13, 02:12:00,VALID,915.584,VALID,0,VALID,100,VALID,0,VALID,19.4298,VALID,66,VALID,0,
2008-10-13, 02:13:00,VALID,915.624,VALID,0,VALID,100,VALID,0,VALID,19.4328,VALID,66,VALID,0,
2008-10-13, 02:14:00,VALID,915.67,VALID,0,VALID,100,VALID,0.0169808,VALID,19.4265,VALID,71,VALID,0,
2008-10-13, 02:15:01,VALID,915.688,VALID,0,VALID,100,VALID,0,VALID,19.4295,VALID,75,VALID,0,
2008-10-13, 02:16:00,VALID,915.73,VALID,0,VALID,100,VALID,0.0169808,VALID,19.443,VALID,75,VALID,0,
2008-10-13, 02:17:01,VALID,915.767,VALID,0,VALID,100,VALID,0,VALID,19.4585,VALID,69,VALID,0,
2008-10-13, 02:18:01,VALID,915.815,VALID,0,VALID,100,VALID,0,VALID,19.4814,VALID,63,VALID,0,
2008-10-13, 02:19:00,VALID,915.837,VALID,0,VALID,100,VALID,0,VALID,19.5079,VALID,81,VALID,0,
2008-10-13, 02:20:01,VALID,915.845,VALID,0,VALID,100,VALID,0,VALID,19.5561,VALID,93,VALID,0,
2008-10-13, 02:21:01,VALID,915.864,VALID,0,VALID,100,VALID,0,VALID,19.5695,VALID,88,VALID,0,
2008-10-13, 02:22:01,VALID,915.873,VALID,0,VALID,100,VALID,0,VALID,19.6015,VALID,93,VALID,0,
2008-10-13, 02:23:01,VALID,915.878,VALID,0,VALID,100,VALID,0.0339617,VALID,19.611,VALID,78,VALID,0,
2008-10-13, 02:24:01,VALID,915.897,VALID,0,VALID,100,VALID,0.0679233,VALID,19.6402,VALID,75,VALID,0,
2008-10-13, 02:25:01,VALID,915.903,VALID,0,VALID,100,VALID,0.0849042,VALID,19.6299,VALID,83,VALID,0,
2008-10-13, 02:26:01,VALID,915.939,VALID,0,VALID,100,VALID,0.0509425,VALID,19.6459,VALID,99,VALID,0,
2008-10-13, 02:27:01,VALID,915.961,VALID,0,VALID,100,VALID,0.0509425,VALID,19.6724,VALID,140,VALID,0,
2008-10-13, 02:28:01,VALID,915.979,VALID,0,VALID,100,VALID,0.0509425,VALID,19.6821,VALID,140,VALID,0,
2008-10-13, 02:29:01,VALID,915.998,VALID,0,VALID,100,VALID,0.0509425,VALID,19.6983,VALID,130,VALID,0,
2008-10-13, 02:30:00,VALID,916.01,VALID,0,VALID,100,VALID,0.0169808,VALID,19.7115,VALID,131,VALID,0,
2008-10-13, 02:31:00,VALID,915.997,VALID,0,VALID,100,VALID,0.0169808,VALID,19.714,VALID,124,VALID,0,
2008-10-13, 02:32:00,VALID,916.003,VALID,0,VALID,100,VALID,0.0169808,VALID,19.731,VALID,133,VALID,0.537997,
2008-10-13, 02:33:00,VALID,916.008,VALID,0,VALID,100,VALID,0.0339617,VALID,19.7405,VALID,130,VALID,0.0409307,
2008-10-13, 02:34:00,VALID,916.001,VALID,0,VALID,100,VALID,0,VALID,19.7505,VALID,124,VALID,0.213415,
2008-10-13, 02:35:00,VALID,916.002,VALID,0,VALID,100,VALID,0.0169808,VALID,19.7602,VALID,124,VALID,0.0090843,
2008-10-13, 02:36:00,VALID,916.01,VALID,0,VALID,100,VALID,0.0339617,VALID,19.7629,VALID,141,VALID,0.0754573,
2008-10-13, 02:37:00,VALID,916.018,VALID,0,VALID,100,VALID,0.101885,VALID,19.7769,VALID,133,VALID,0.265244,
2008-10-13, 02:38:00,VALID,916.002,VALID,0,VALID,100,VALID,0.0169808,VALID,19.7629,VALID,131,VALID,0.253299,
2008-10-13, 02:39:00,VALID,915.996,VALID,0,VALID,100,VALID,0.0339617,VALID,19.7532,VALID,134,VALID,0.0552591,
2008-10-13, 02:40:00,VALID,915.981,VALID,0,VALID,100,VALID,0.0169808,VALID,19.7565,VALID,147,VALID,0.349201,
2008-10-13, 02:41:00,VALID,915.967,VALID,0,VALID,100,VALID,0.0509425,VALID,19.7627,VALID,153,VALID,0.393415,
2008-10-13, 02:42:00,VALID,915.958,VALID,0,VALID,100,VALID,0.0509425,VALID,19.7664,VALID,138,VALID,0.929501,
2008-10-13, 02:43:00,VALID,915.946,VALID,0,VALID,100,VALID,0.0509425,VALID,19.7634,VALID,150,VALID,1.17878,
2008-10-13, 02:44:00,VALID,915.925,VALID,0,VALID,100,VALID,0,VALID,19.7505,VALID,133,VALID,1.24883,
2008-10-13, 02:45:00,VALID,915.91,VALID,0,VALID,100,VALID,0.0339617,VALID,19.731,VALID,133,VALID,1.23158,
2008-10-13, 02:46:00,VALID,915.882,VALID,0,VALID,100,VALID,0.0169808,VALID,19.7018,VALID,137,VALID,1.49004,
2008-10-13, 02:47:00,VALID,915.861,VALID,0,VALID,100,VALID,0,VALID,19.6883,VALID,132,VALID,0.616806,
2008-10-13, 02:48:00,VALID,915.853,VALID,0,VALID,100,VALID,0.0169808,VALID,19.7023,VALID,132,VALID,0.0565476,
2008-10-13, 02:49:00,VALID,915.855,VALID,0,VALID,100,VALID,0.0169808,VALID,19.6828,VALID,109,VALID,1.137,
2008-10-13, 02:50:00,VALID,915.852,VALID,0,VALID,100,VALID,-0.0509425,VALID,19.6669,VALID,126,VALID,0.738009,
2008-10-13, 02:51:00,VALID,915.867,VALID,0,VALID,100,VALID,-0.0509425,VALID,19.6636,VALID,121,VALID,0,
2008-10-13, 02:52:00,VALID,915.88,VALID,0,VALID,100,VALID,-0.0679233,VALID,19.6738,VALID,118,VALID,0,
2008-10-13, 02:53:00,VALID,915.886,VALID,0,VALID,100,VALID,-0.0849042,VALID,19.6741,VALID,130,VALID,0,
2008-10-13, 02:54:00,VALID,915.9,VALID,0,VALID,100,VALID,-0.0849042,VALID,19.6708,VALID,125,VALID,0.213356,
2008-10-13, 02:55:00,VALID,915.911,VALID,0,VALID,100,VALID,-0.0849042,VALID,19.6571,VALID,124,VALID,0.117914,
2008-10-13, 02:56:00,VALID,915.918,VALID,0,VALID,100,VALID,-0.0339617,VALID,19.6639,VALID,122,VALID,0,
2008-10-13, 02:57:00,VALID,915.931,VALID,0,VALID,100,VALID,-0.0849042,VALID,19.6704,VALID,104,VALID,0.299183,
2008-10-13, 02:58:00,VALID,915.94,VALID,0,VALID,100,VALID,-0.0849042,VALID,19.6574,VALID,96,VALID,0.0025436,
2008-10-13, 02:59:00,VALID,915.925,VALID,0,VALID,100,VALID,-0.0849042,VALID,19.6806,VALID,111,VALID,0.275484,
2008-10-13, 03:00:00,VALID,915.933,VALID,0,VALID,100,VALID,-0.0849042,VALID,19.6644,VALID,102,VALID,1.22726,
2008-10-13, 03:01:00,VALID,915.943,VALID,0,VALID,100,VALID,-0.0849042,VALID,19.6509,VALID,105,VALID,0.15957,
2008-10-13, 03:02:00,VALID,915.921,VALID,0,VALID,100,VALID,-0.0849042,VALID,19.6541,VALID,62,VALID,0.313953,
2008-10-13, 03:03:00,VALID,915.926,VALID,0,VALID,100,VALID,-0.0849042,VALID,19.6416,VALID,85,VALID,0.00253906,
2008-10-13, 03:04:00,VALID,915.917,VALID,0,VALID,100,VALID,-0.0679233,VALID,19.6317,VALID,82,VALID,0.0012718,
2008-10-13, 03:05:00,VALID,915.902,VALID,0,VALID,100,VALID,-0.0509425,VALID,19.6419,VALID,74,VALID,0.0783026,
2008-10-13, 03:06:00,VALID,915.89,VALID,0,VALID,100,VALID,-0.0849042,VALID,19.6154,VALID,64,VALID,0,
2008-10-13, 03:07:00,VALID,915.888,VALID,0,VALID,100,VALID,-0.0849042,VALID,19.6157,VALID,66,VALID,0,
2008-10-13, 03:08:00,VALID,915.872,VALID,0,VALID,100,VALID,-0.0849042,VALID,19.586,VALID,79,VALID,0,
2008-10-13, 03:09:00,VALID,915.858,VALID,0,VALID,100,VALID,-0.0339617,VALID,19.5825,VALID,76,VALID,0,
2008-10-13, 03:10:00,VALID,915.855,VALID,0,VALID,100,VALID,-0.0849042,VALID,19.593,VALID,63,VALID,0,
2008-10-13, 03:11:00,VALID,915.861,VALID,0,VALID,100,VALID,-0.0339617,VALID,19.5598,VALID,63,VALID,0,
2008-10-13, 03:12:00,VALID,915.869,VALID,0,VALID,100,VALID,-0.0679233,VALID,19.5506,VALID,76,VALID,0,
2008-10-13, 03:13:00,VALID,915.872,VALID,0,VALID,100,VALID,-0.101885,VALID,19.5478,VALID,103,VALID,0.415551,
2008-10-13, 03:14:00,VALID,915.861,VALID,0,VALID,100,VALID,-0.0679233,VALID,19.5149,VALID,99,VALID,0.422569,
2008-10-13, 03:15:00,VALID,915.826,VALID,0,VALID,100,VALID,-0.0339617,VALID,19.5116,VALID,99,VALID,0.359553,
2008-10-13, 03:16:00,VALID,915.785,VALID,0,VALID,100,VALID,-0.0679233,VALID,19.5124,VALID,99,VALID,0.473323,
2008-10-13, 03:17:00,VALID,915.755,VALID,0,VALID,100,VALID,-0.0679233,VALID,19.5056,VALID,99,VALID,0,
2008-10-13, 03:18:00,VALID,915.733,VALID,0,VALID,100,VALID,-0.0849042,VALID,19.4792,VALID,99,VALID,0,
2008-10-13, 03:19:00,VALID,915.708,VALID,0,VALID,100,VALID,-0.101885,VALID,19.4664,VALID,99,VALID,0,
2008-10-13, 03:20:00,VALID,915.705,VALID,0,VALID,100,VALID,-0.0679233,VALID,19.4734,VALID,119,VALID,0,
2008-10-13, 03:21:00,VALID,915.71,VALID,0,VALID,100,VALID,-0.0679233,VALID,19.4505,VALID,119,VALID,0,
2008-10-13, 03:22:00,VALID,915.738,VALID,0,VALID,100,VALID,-0.0679233,VALID,19.4305,VALID,119,VALID,0,
2008-10-13, 03:23:00,VALID,915.755,VALID,0,VALID,100,VALID,-0.101885,VALID,19.4105,VALID,119,VALID,0,
2008-10-13, 03:24:00,VALID,915.766,VALID,0,VALID,100,VALID,-0.0509425,VALID,19.3983,VALID,119,VALID,0,
2008-10-13, 03:25:00,VALID,915.755,VALID,0,VALID,100,VALID,-0.0509425,VALID,19.3784,VALID,119,VALID,0,
2008-10-13, 03:26:00,VALID,915.774,VALID,0,VALID,100,VALID,-0.0849042,VALID,19.3686,VALID,119,VALID,0,
2008-10-13, 03:27:00,VALID,915.776,VALID,0,VALID,100,VALID,-0.0679233,VALID,19.3594,VALID,119,VALID,0,
2008-10-13, 03:28:00,VALID,915.79,VALID,0,VALID,100,VALID,-0.0849042,VALID,19.3394,VALID,119,VALID,0,
2008-10-13, 03:29:00,VALID,915.789,VALID,0,VALID,100,VALID,-0.0169808,VALID,19.3294,VALID,115,VALID,0,
2008-10-13, 03:30:00,VALID,915.771,VALID,0,VALID,100,VALID,-0.0849042,VALID,19.3299,VALID,110,VALID,0,
2008-10-13, 03:31:00,VALID,915.751,VALID,0,VALID,100,VALID,-0.101885,VALID,19.3239,VALID,112,VALID,0,
2008-10-13, 03:32:00,VALID,915.723,VALID,0,VALID,100,VALID,-0.101885,VALID,19.3239,VALID,138,VALID,0,
2008-10-13, 03:33:00,VALID,915.681,VALID,0,VALID,100,VALID,-0.0509425,VALID,19.3137,VALID,150,VALID,0,
2008-10-13, 03:34:00,VALID,915.648,VALID,0,VALID,100,VALID,-0.0679233,VALID,19.3197,VALID,162,VALID,0,
2008-10-13, 03:35:00,VALID,915.606,VALID,0,VALID,100,VALID,-0.0509425,VALID,19.317,VALID,168,VALID,0,
2008-10-13, 03:36:00,VALID,915.57,VALID,0,VALID,100,VALID,-0.0849042,VALID,19.3172,VALID,168,VALID,0,
2008-10-13, 03:37:00,VALID,915.552,VALID,0,VALID,100,VALID,-0.0849042,VALID,19.31,VALID,166,VALID,0.570833,
2008-10-13, 03:38:00,VALID,915.548,VALID,0,VALID,100,VALID,-0.0679233,VALID,19.3359,VALID,159,VALID,0.833398,
2008-10-13, 03:39:00,VALID,915.547,VALID,0,VALID,100,VALID,-0.0339617,VALID,19.3522,VALID,166,VALID,0.561942,
2008-10-13, 03:40:00,VALID,915.566,VALID,0,VALID,100,VALID,-0.101885,VALID,19.3624,VALID,143,VALID,0.877976,
2008-10-13, 03:41:00,VALID,915.582,VALID,0,VALID,100,VALID,-0.0509425,VALID,19.3626,VALID,143,VALID,0.241097,
2008-10-13, 03:42:00,VALID,915.592,VALID,0,VALID,100,VALID,-0.0849042,VALID,19.3689,VALID,135,VALID,0.743924,
2008-10-13, 03:43:00,VALID,915.617,VALID,0,VALID,100,VALID,-0.101885,VALID,19.3526,VALID,137,VALID,0.495313,
2008-10-13, 03:44:00,VALID,915.648,VALID,0,VALID,100,VALID,-0.0509425,VALID,19.3522,VALID,136,VALID,0.240799,
2008-10-13, 03:45:00,VALID,915.672,VALID,0,VALID,100,VALID,-0.0849042,VALID,19.3526,VALID,137,VALID,0,
2008-10-13, 03:46:00,VALID,915.716,VALID,0,VALID,100,VALID,-0.0679233,VALID,19.3489,VALID,137,VALID,0,
2008-10-13, 03:47:00,VALID,915.736,VALID,0,VALID,100,VALID,-0.0679233,VALID,19.3489,VALID,99,VALID,0,
2008-10-13, 03:48:00,VALID,915.767,VALID,0,VALID,100,VALID,-0.0169808,VALID,19.3489,VALID,41,VALID,0,
2008-10-13, 03:49:00,VALID,915.792,VALID,0,VALID,100,VALID,-0.0169808,VALID,19.3092,VALID,32,VALID,0.216388,
2008-10-13, 03:50:00,VALID,915.806,VALID,0,VALID,100,VALID,0.0169808,VALID,19.2731,VALID,25,VALID,0,
2008-10-13, 03:51:00,VALID,915.822,VALID,0,VALID,100,VALID,0.0509425,VALID,19.2603,VALID,32,VALID,0,